Regional Weather Roundup
Issued by NWS Binghamton, NY

Home | Current Version | Previous Version | Text Only | Print | Product List | Glossary On
Versions: 1 2 3 4 5 6 7 8 9 10 11 12 13 14 15 16 17 18 19 20 21 22 23 24 25 26 27 28 29 30 31 32 33 34 35 36 37 38 39 40 41 42 43 44 45 46 47 48 49 50
000
ASUS41 KBGM 182210
RWRBGM
RWRBGM
BINGHAMTON REGIONAL WEATHER ROUNDUP
NATIONAL WEATHER SERVICE BINGHAMTON NY
500 PM EST THU DEC 18 2014

Note: "fair" indicates few or no clouds below 12,000 feet with no
significant weather and/or obstructions to visibility.

* = Station(s) that does not report precipitation, such as rain,
snow, etc, also no thunder or fog.

!NYZ009-015>018-022>025-036-037-044>046-055>057-062-182300
...CENTRAL NEW YORK...

CITY           SKY/WX    TMP DP  RH WIND       PRES   REMARKS
BINGHAMTON     CLOUDY    29  28  96 W9        29.96S FOG     WCI  20
CORTLAND       CLOUDY    32  28  86 W8G16     30.01R WCI  25
DANSVILLE      CLOUDY    33  26  75 NW7       30.05S WCI  27
ELMIRA         CLOUDY    34  26  72 W14       30.02R WCI  25
ITHACA         LGT SNOW  30  29  96 NW10      30.02R FOG     WCI  21
HAMILTON       CLOUDY    30  27  86 NW5G17    29.98R WCI  25
MONTICELLO     CLOUDY    30  27  86 W15G23    29.94F WCI  19
NORWICH        CLOUDY    30  25  80 NW8G17    29.99S WCI  23
ONEONTA        CLOUDY    28  27  93 CALM      29.92S
PENN YAN       CLOUDY    32  26  78 W9        30.02R WCI  24
ROME           CLOUDY    30  27  88 W13       30.00S WCI  20
SIDNEY         CLOUDY    32  30  93 NW9       29.99S WCI  24
SYRACUSE       FLURRIES  31  28  89 W15       30.02S WCI  20
$$

!PAZ038>040-043-044-047-048-072-182300
...NORTHEAST PENNSYLVANIA...

CITY           SKY/WX    TMP DP  RH WIND       PRES   REMARKS
HAZLETON       CLOUDY    32  27  80 W10G20    29.99F WCI  24
SCRANTON       CLOUDY    35  26  69 NW9       30.00R WCI  28
TOWANDA*       CLOUDY    36  25  64 W6        30.04S WCI  31
$$
&&
KEY
WCI = WIND CHILL INDEX
VSB = VISIBILITY
HX  = HEAT INDEX
$$



USA.gov is the U.S. government's official web portal to all federal, state and local government web resources and services.